Bowman Field
KLOU : now visible

Airfield :











YOU CAN JOIN US ON...

 
LOGIN :

Register | Disclaimer

   EN    FR    IT 

 









Legend :    VFR   Marginal VFR   IFR   Intensive IFR   Very Intensive IFR
Visi :
Ceiling :
>= 8 km
>= 3000ft
5 to 8 km
1000 to 3000 ft
1500m to 5 km
500 to 1000 ft
800 to 1500m
200 to 500 ft
< 800m
< 200 ft
Symbols :   Thunderstorms  Fog  Heavy snow  Heavy precipitations  Wind > 20 kt






- Airport Elevation : 546 ft


KLOU - Bowman Field

CURRENT METAR :
  • 200353Z AUTO 33008KT 10SM OVC020 M08/M14 A3049 RMK AO2 SLP332 T10831139

EXPIRED METARs :
  • 200253Z 31009KT 10SM OVC020 M08/M14 A3048 RMK AO2 SLP329 60000 T10831139 51011
  • 200153Z 33008KT 290V350 10SM OVC022 M08/M13 A3047 RMK AO2 SLP326 T10831133

TAF N/A



MET'MAP, your aeronautical weather chart ! - Copyright ORBIFLY December 2007 - Disclaimer

ORBIFLY MET'MAP TEAM :

Programming & Development : Alexandra Zaïnal
Concept & original design : Baudouin d'Aumeries
Assistance for programming : Marc-Olivier Méhu
Technical & hardware support : Manuel Goepfert

Contact : metmap@orbifly.com




SOURCES & CREDITS :

   NOAA       Earth
Advisory